SV1DAY-13 Weather Reports


time (UTC)temp
C
wind
direction
speed
KPH
gust
KPH
rain 1hr
cm
rain 24hr
cm
rain mn
cm
humidity
%
barometer
mb
20260906100117 27 305 11.3 29.0 0.00 0.00 0.00 49 1013.6
20260906094549 27 289 16.1 33.8 0.00 0.00 0.00 52 1013.6
20260906093044 27 294 17.7 27.4 0.00 0.00 0.00 49 1013.7
20260906091559 27 263 19.3 30.6 0.00 0.00 0.00 48 1013.7
20260906090124 26 16 19.3 32.2 0.00 0.00 0.00 52 1013.7
20260906084555 26 290 24.1 35.4 0.00 0.00 0.00 53 1013.5
20260906083047 26 315 16.1 30.6 0.00 0.00 0.00 50 1013.7
20260906081552 26 304 19.3 33.8 0.00 0.00 0.00 52 1013.7
20260906080127 26 9 16.1 30.6 0.00 0.00 0.00 52 1013.8
20260906074605 25 360 9.7 29.0 0.00 0.00 0.00 52 1013.8
20260906073103 25 245 9.7 30.6 0.00 0.00 0.00 53 1013.7
20260906071546 25 315 14.5 32.2 0.00 0.00 0.00 54 1013.5
20260906070116 23 19 16.1 37.0 0.00 0.00 0.00 55 1013.4
20260906064553 23 41 17.7 37.0 0.00 0.00 0.00 55 1013.3
20260906063051 23 9 29.0 46.7 0.00 0.00 0.00 56 1013.1
20260906061545 23 272 25.7 40.2 0.00 0.00 0.00 55 1013.0
20260906060108 23 9 22.5 40.2 0.00 0.00 0.00 55 1012.9
20260906054555 23 272 20.9 33.8 0.00 0.00 0.00 55 1012.8
20260906053052 22 293 19.3 45.1 0.00 0.00 0.00 55 1012.5
20260906051556 22 44 19.3 37.0 0.00 0.00 0.00 55 1012.5
20260906050114 22 10 25.7 40.2 0.00 0.00 0.00 55 1012.4
20260906044548 21 360 24.1 40.2 0.00 0.00 0.00 55 1012.2
20260906043100 20 360 24.1 40.2 0.00 0.00 0.00 57 1012.1
20260906041602 20 360 20.9 38.6 0.00 0.00 0.00 57 1011.9
20260906040032 20 360 27.4 46.7 0.00 0.00 0.00 57 1012.0
20260906034613 20 281 32.2 45.1 0.00 0.00 0.00 57 1012.0
20260906033047 20 279 25.7 46.7 0.00 0.00 0.00 58 1011.9
20260906031548 20 360 32.2 48.3 0.00 0.00 0.00 58 1011.8
20260906030125 20 360 38.6 49.9 0.00 0.00 0.00 57 1011.8
20260906024553 20 266 40.2 56.3 0.00 0.00 0.00 57 1011.8
20260906023050 20 267 37.0 53.1 0.00 0.00 0.00 60 1012.0
20260906021545 21 269 32.2 46.7 0.00 0.00 0.00 59 1012.1
20260906020111 20 249 27.4 46.7 0.00 0.00 0.00 58 1012.3
20260906014555 20 270 37.0 48.3 0.00 0.00 0.00 56 1012.1
20260906013104 21 265 27.4 48.3 0.00 0.00 0.00 56 1012.2
20260906011548 21 279 27.4 41.8 0.00 0.00 0.00 56 1012.1
20260906010111 21 256 20.9 38.6 0.00 0.00 0.00 56 1012.2
20260906004603 21 267 16.1 33.8 0.00 0.00 0.00 56 1012.3
20260906003056 21 277 14.5 35.4 0.00 0.00 0.00 56 1012.2
20260906001547 20 33 17.7 29.0 0.00 0.00 0.00 56 1012.3
20260906000117 20 314 16.1 29.0 0.00 0.00 0.00 56 1012.4
20260905234543 20 307 12.9 29.0 0.00 0.00 0.00 57 1012.4
20260905233056 21 279 12.9 24.1 0.00 0.00 0.00 57 1012.8
20260905231555 21 270 12.9 24.1 0.00 0.00 0.00 57 1012.9
20260905230120 22 9 12.9 29.0 0.00 0.00 0.00 57 1013.0
20260905224546 22 265 19.3 35.4 0.00 0.00 0.00 57 1012.8
20260905223042 23 253 12.9 24.1 0.00 0.00 0.00 58 1012.9
20260905221556 23 314 11.3 30.6 0.00 0.00 0.00 54 1013.0
20260905220120 23 277 17.7 32.2 0.00 0.00 0.00 56 1012.8
20260905214601 23 289 17.7 35.4 0.00 0.00 0.00 56 1012.8
20260905213059 23 281 20.9 35.4 0.00 0.00 0.00 55 1012.8
20260905211551 23 286 20.9 38.6 0.00 0.00 0.00 55 1012.5
20260905210112 23 311 29.0 49.9 0.00 0.00 0.00 55 1012.8
20260905204555 24 360 30.6 46.7 0.00 0.00 0.00 54 1012.6
20260905203106 24 360 30.6 49.9 0.00 0.00 0.00 53 1012.7
20260905201541 25 9 37.0 59.5 0.00 0.00 0.00 51 1012.3
20260905200110 25 26 45.1 62.8 0.00 0.00 0.00 50 1011.7
20260905194554 25 304 46.7 61.2 0.00 0.00 0.00 49 1012.0
20260905193051 25 314 49.9 70.8 0.00 0.00 0.00 51 1011.7
20260905191547 24 257 43.5 66.0 0.00 0.00 0.00 52 1011.9
20260905190109 25 282 41.8 69.2 0.00 0.00 0.00 49 1012.0
20260905184601 25 15 49.9 69.2 0.00 0.00 0.00 48 1012.0
20260905183054 25 9 43.5 67.6 0.00 0.00 0.00 51 1011.7
20260905181547 25 284 49.9 69.2 0.00 0.00 0.00 49 1011.3
20260905180042 25 288 48.3 69.2 0.00 0.00 0.00 51 1011.4
20260905174543 24 360 45.1 67.6 0.00 0.00 0.00 53 1011.4
20260905173058 23 360 46.7 67.6 0.00 0.00 0.00 57 1011.2
20260905171602 22 9 45.1 66.0 0.00 0.00 0.00 56 1010.7
20260905164600 23 360 48.3 69.2 0.00 0.00 0.00 58 1011.0
20260905163056 25 307 46.7 69.2 0.00 0.00 0.00 51 1011.1
20260905161504 25 275 45.1 66.0 0.00 0.00 0.00 47 1011.1
20260905160122 25 360 53.1 70.8 0.00 0.00 0.00 50 1010.4
20260905154618 25 9 41.8 64.4 0.00 0.00 0.00 52 1010.8
20260905153047 25 360 48.3 67.6 0.00 0.00 0.00 52 1010.5
20260905151559 26 273 41.8 59.5 0.00 0.00 0.00 49 1010.7
20260905150109 26 12 27.4 51.5 0.00 0.00 0.00 49 1011.1
20260905144555 26 360 35.4 54.7 0.00 0.00 0.00 50 1011.1
20260905143102 26 286 24.1 46.7 0.00 0.00 0.00 48 1011.4
20260905141551 26 232 17.7 46.7 0.00 0.00 0.00 49 1011.8
20260905140118 25 12 32.2 51.5 0.00 0.00 0.00 55 1011.6
20260905134543 25 82 32.2 53.1 0.00 0.00 0.00 55 1011.4
20260905133042 26 309 20.9 40.2 0.00 0.00 0.00 54 1011.5
20260905131556 25 315 17.7 43.5 0.00 0.00 0.00 55 1011.9
20260905130121 26 275 11.3 29.0 0.00 0.00 0.00 55 1011.7
20260905124652 26 306 17.7 29.0 0.00 0.00 0.00 55 1011.6
20260905123048 26 44 9.7 25.7 0.00 0.00 0.00 54 1011.8
20260905121540 26 34 14.5 25.7 0.00 0.00 0.00 55 1011.7
20260905120106 25 24 14.5 33.8 0.00 0.00 0.00 55 1011.9
20260905114607 25 281 19.3 33.8 0.00 0.00 0.00 56 1011.8
20260905113054 26 9 14.5 30.6 0.00 0.00 0.00 55 1012.0
20260905111612 26 307 25.7 35.4 0.00 0.00 0.00 54 1011.8
20260905110116 28 15 12.9 22.5 0.00 0.00 0.00 50 1011.8
20260905104607 28 281 11.3 19.3 0.00 0.00 0.00 49 1011.7
20260905103041 27 315 3.2 20.9 0.00 0.00 0.00 51 1011.8
20260905101558 27 49 8.0 19.3 0.00 0.00 0.00 52 1011.9